When you browse on this site, cookies collect data to enhance your experience and personalize the content and advertising you see.
Visit our Privacy Policy to learn more. By continuing to use the site, you agree to this use of cookies and data.

Tiempo cada hora Madrid

Hoy, 4 Julio, Sábado

Tiempo Temperatura Precipitaciones Viento Presión Humedad
00:00 +23°C° 0 mm 4 mps 711 mmHg 32%
01:00 +22°C° 0 mm 4 mps 710 mmHg 35%
02:00 +21°C° 0 mm 3 mps 710 mmHg 37%
03:00 +20°C° 0 mm 3 mps 710 mmHg 40%
04:00 +20°C° 0 mm 3 mps 710 mmHg 42%
05:00 +20°C° 0 mm 3 mps 710 mmHg 45%
06:00 +20°C° 0 mm 2 mps 711 mmHg 47%
07:00 +23°C° 0 mm 2 mps 711 mmHg 45%
08:00 +25°C° 0 mm 2 mps 711 mmHg 42%
09:00 +27°C° 0 mm 1 mps 711 mmHg 40%
10:00 +29°C° 0 mm 1 mps 711 mmHg 33%
11:00 +30°C° 0 mm 1 mps 711 mmHg 26%
12:00 +32°C° 0 mm 1 mps 711 mmHg 19%
13:00 +33°C° 0 mm 1 mps 711 mmHg 17%
14:00 +34°C° 0 mm 1 mps 711 mmHg 16%
15:00 +36°C° 0 mm 2 mps 710 mmHg 14%
16:00 +36°C° 0 mm 2 mps 710 mmHg 14%
17:00 +34°C° 0 mm 1 mps 710 mmHg 14%
18:00 +34°C° 0 mm 1 mps 710 mmHg 14%
19:00 +32°C° 0 mm 2 mps 710 mmHg 17%
20:00 +31°C° 0 mm 3 mps 711 mmHg 21%
21:00 +29°C° 0 mm 3 mps 711 mmHg 24%
22:00 +28°C° 0 mm 4 mps 711 mmHg 26%
23:00 +27°C° 0 mm 4 mps 711 mmHg 28%

Mañana, 5 Julio, Domingo

Tiempo Temperatura Precipitaciones Viento Presión Humedad
00:00 +25°C° 0 mm 5 mps 711 mmHg 30%
01:00 +25°C° 0 mm 4 mps 711 mmHg 32%
02:00 +23°C° 0 mm 4 mps 711 mmHg 34%
03:00 +22°C° 0 mm 3 mps 711 mmHg 36%
04:00 +22°C° 0 mm 3 mps 711 mmHg 35%
05:00 +23°C° 0 mm 2 mps 711 mmHg 34%
06:00 +24°C° 0 mm 2 mps 711 mmHg 34%
07:00 +25°C° 0 mm 2 mps 711 mmHg 33%
08:00 +27°C° 0 mm 2 mps 711 mmHg 33%
09:00 +29°C° 0 mm 1 mps 711 mmHg 33%
10:00 +31°C° 0 mm 1 mps 711 mmHg 28%
11:00 +33°C° 0 mm 1 mps 710 mmHg 24%
12:00 +35°C° 0 mm 1 mps 710 mmHg 20%
13:00 +36°C° 0 mm 1 mps 710 mmHg 17%
14:00 +37°C° 0 mm 2 mps 710 mmHg 15%
15:00 +38°C° 0 mm 2 mps 709 mmHg 12%
16:00 +38°C° 0 mm 2 mps 709 mmHg 12%
17:00 +37°C° 0 mm 1 mps 709 mmHg 12%
18:00 +37°C° 0 mm 1 mps 708 mmHg 12%
19:00 +35°C° 0 mm 1 mps 708 mmHg 14%
20:00 +33°C° 0 mm 1 mps 709 mmHg 17%
21:00 +31°C° 0 mm 2 mps 709 mmHg 19%
22:00 +30°C° 0 mm 2 mps 709 mmHg 22%
23:00 +29°C° 0 mm 3 mps 709 mmHg 26%

Pasado mañana, 6 Julio, Lunes

Tiempo Temperatura Precipitaciones Viento Presión Humedad
00:00 +28°C° 0 mm 4 mps 709 mmHg 29%
01:00 +27°C° 0 mm 4 mps 708 mmHg 35%
02:00 +26°C° 0 mm 3 mps 708 mmHg 40%
03:00 +25°C° 0 mm 3 mps 708 mmHg 46%
04:00 +25°C° 0 mm 3 mps 708 mmHg 47%
05:00 +25°C° 0 mm 3 mps 708 mmHg 47%
06:00 +25°C° 0 mm 3 mps 708 mmHg 48%
07:00 +27°C° 0 mm 3 mps 708 mmHg 43%
08:00 +29°C° 0 mm 2 mps 708 mmHg 38%
09:00 +31°C° 0 mm 2 mps 708 mmHg 33%
10:00 +34°C° 0 mm 2 mps 708 mmHg 29%
11:00 +35°C° 0 mm 1 mps 708 mmHg 24%
12:00 +36°C° 0 mm 1 mps 708 mmHg 19%
13:00 +37°C° 0 mm 1 mps 708 mmHg 17%
14:00 +39°C° 0 mm 2 mps 707 mmHg 15%
15:00 +39°C° 0 mm 2 mps 707 mmHg 13%
16:00 +39°C° 0 mm 2 mps 707 mmHg 14%
17:00 +39°C° 0 mm 2 mps 707 mmHg 15%
18:00 +38°C° 0 mm 2 mps 707 mmHg 15%
19:00 +36°C° 0 mm 4 mps 707 mmHg 23%
20:00 +33°C° 0 mm 5 mps 707 mmHg 31%
21:00 +29°C° 0 mm 7 mps 707 mmHg 39%
22:00 +28°C° 0 mm 6 mps 707 mmHg 42%
23:00 +27°C° 0 mm 6 mps 707 mmHg 45%

7 Julio, Martes

Tiempo Temperatura Precipitaciones Viento Presión Humedad
00:00 +26°C° 0 mm 5 mps 707 mmHg 48%
01:00 +25°C° 0 mm 5 mps 707 mmHg 48%
02:00 +25°C° 0 mm 4 mps 707 mmHg 48%
03:00 +24°C° 0 mm 3 mps 706 mmHg 48%
04:00 +24°C° 0 mm 3 mps 706 mmHg 47%
05:00 +24°C° 0 mm 3 mps 706 mmHg 46%
06:00 +24°C° 0 mm 3 mps 706 mmHg 46%
07:00 +26°C° 0 mm 3 mps 707 mmHg 41%
08:00 +28°C° 0 mm 3 mps 707 mmHg 37%
09:00 +30°C° 0 mm 3 mps 707 mmHg 32%
10:00 +32°C° 0 mm 2 mps 707 mmHg 28%
11:00 +34°C° 0 mm 1 mps 706 mmHg 25%
12:00 +36°C° 0 mm 1 mps 706 mmHg 21%
13:00 +37°C° 0 mm 1 mps 706 mmHg 19%
14:00 +38°C° 0 mm 2 mps 706 mmHg 16%
15:00 +39°C° 0 mm 3 mps 706 mmHg 14%
16:00 +39°C° 0 mm 3 mps 705 mmHg 13%
17:00 +39°C° 0 mm 3 mps 705 mmHg 13%
18:00 +39°C° 0 mm 3 mps 705 mmHg 12%
19:00 +37°C° 0 mm 3 mps 705 mmHg 16%
20:00 +34°C° 0 mm 3 mps 706 mmHg 19%
21:00 +31°C° 0 mm 3 mps 706 mmHg 22%
22:00 +30°C° 0 mm 3 mps 706 mmHg 29%
23:00 +28°C° 0 mm 4 mps 706 mmHg 36%

8 Julio, Miércoles

Tiempo Temperatura Precipitaciones Viento Presión Humedad
00:00 +27°C° 0 mm 5 mps 706 mmHg 42%
01:00 +26°C° 0 mm 4 mps 705 mmHg 47%
02:00 +25°C° 0 mm 4 mps 705 mmHg 52%
03:00 +24°C° 0 mm 3 mps 705 mmHg 57%
04:00 +24°C° 0 mm 3 mps 705 mmHg 58%
05:00 +24°C° 0 mm 3 mps 705 mmHg 59%
06:00 +24°C° 0 mm 3 mps 705 mmHg 60%
07:00 +26°C° 0 mm 3 mps 706 mmHg 53%
08:00 +27°C° 0 mm 3 mps 706 mmHg 46%
09:00 +29°C° 0 mm 3 mps 706 mmHg 39%
10:00 +31°C° 0 mm 3 mps 706 mmHg 33%
11:00 +34°C° 0 mm 3 mps 706 mmHg 27%
12:00 +36°C° 0 mm 3 mps 706 mmHg 21%
13:00 +37°C° 0 mm 4 mps 705 mmHg 18%
14:00 +38°C° 0 mm 4 mps 705 mmHg 15%
15:00 +40°C° 0 mm 5 mps 705 mmHg 11%
16:00 +40°C° 0 mm 5 mps 705 mmHg 11%
17:00 +39°C° 0 mm 5 mps 705 mmHg 10%
18:00 +39°C° 0 mm 5 mps 704 mmHg 9%
19:00 +35°C° 0 mm 5 mps 705 mmHg 12%
20:00 +33°C° 0 mm 4 mps 705 mmHg 14%
21:00 +30°C° 0 mm 3 mps 706 mmHg 17%
22:00 +28°C° 0 mm 3 mps 706 mmHg 27%
23:00 +27°C° 0 mm 4 mps 706 mmHg 37%

9 Julio, Jueves

Tiempo Temperatura Precipitaciones Viento Presión Humedad
00:00 +26°C° 0 mm 4 mps 706 mmHg 47%
01:00 +25°C° 0 mm 4 mps 707 mmHg 53%
02:00 +23°C° 0 mm 5 mps 707 mmHg 59%
03:00 +22°C° 0 mm 5 mps 707 mmHg 66%
04:00 +22°C° 0 mm 5 mps 707 mmHg 65%
05:00 +22°C° 0 mm 4 mps 707 mmHg 65%
06:00 +21°C° 0 mm 4 mps 708 mmHg 65%
07:00 +23°C° 0 mm 4 mps 708 mmHg 57%
08:00 +26°C° 0 mm 3 mps 708 mmHg 48%
09:00 +28°C° 0 mm 3 mps 708 mmHg 39%
10:00 +29°C° 0 mm 3 mps 708 mmHg 34%
11:00 +31°C° 0 mm 2 mps 708 mmHg 28%
12:00 +34°C° 0 mm 2 mps 708 mmHg 22%
13:00 +35°C° 0 mm 2 mps 708 mmHg 20%
14:00 +35°C° 0 mm 1 mps 708 mmHg 19%
15:00 +35°C° 0 mm 1 mps 708 mmHg 17%
16:00 +34°C° 0.1 mm 3 mps 707 mmHg 24%
17:00 +32°C° 0.1 mm 5 mps 707 mmHg 31%
18:00 +29°C° 0.1 mm 7 mps 707 mmHg 38%
19:00 +28°C° 0 mm 6 mps 708 mmHg 40%
20:00 +27°C° 0 mm 5 mps 708 mmHg 41%
21:00 +26°C° 0 mm 4 mps 708 mmHg 42%
22:00 +25°C° 0 mm 3 mps 708 mmHg 44%
23:00 +25°C° 0 mm 3 mps 708 mmHg 46%
Mostrar más